Find Starlink 31579

NORAD ID: 59267 Int'l Des: 2024-050 Owner: SPXS Country: US Constellation: starlink operational
LEOCIRCULAR

Live-Position

3D-Globus wird geladen...

Über Starlink 31579

Beschreibung wird geladen...

Nächste Überflüge

Passes for default location (London). Set your location on the main map for personalized predictions.

Höhenverlauf

Loading altitude history...

Zweizeiliger Elementsatz

1 59267U 24050P 26132.73908024 -.00000726 00000-0 -12390-4 0 9993
2 59267 53.1604 243.5735 0000989 85.4815 274.6299 15.30191719120353
Epoch: 12. Mai 2026 • Age: 20 hours

Aktueller Status

Höhe 491.8 km
Geschwindigkeit 7.62 km/s
Subsatellitenpunkt -46.81°S, 36.69°E
Startdatum 19. März 2024
Alter 2.1 years
Typ internet

Technische Details

Klassifizierung Payload
Masse 730.00 kg
Trockenmasse 700.00 kg
Gesamtmasse 730.00 kg
Länge 0.30 m
Durchmesser 4.10 m
Spannweite 29.00 m
Form Box + pan
Hersteller SPXS
Bus-Typ Starlink V2M
Phasenstatus In Orbit
Besitzer/Staat SPXS/US

Most Searched